{"data":{"norad_id":56192,"epoch":"2026-09-21T22:39:47.500992Z","epoch_age_seconds":62010,"freshness":"FRESH","line1":"1 56192U 23054Q   26264.94429978  .00003146  00000+0  11584-3 0  9994","line2":"2 56192  97.3623 153.2483 0011561 181.8318 178.2882 15.28529611190966","mean_motion":15.28529611,"eccentricity":0.0011561,"inclination_deg":97.3623,"raan_deg":153.2483,"arg_perigee_deg":181.8318,"mean_anomaly_deg":178.2882,"bstar":0.00011584,"rev_number":19096,"period_min":94.20818475724,"perigee_km":472.27815969286,"apogee_km":488.13602290076,"semimajor_km":6858.3440912968,"source":"CELESTRAK","updated_at":"2026-09-22T09:00:25.734599Z"}}